Location: Munderkingen
(48.2395°N, 9.6433°E)
Time: 06:33:11
(UTC+01:00)

ISS - Pass Details

Date: 13 November 2017
Orbit: 402 x 407 km, 51.6° (Epoch: 24 November)

Event Time Altitude Azimuth Distance (km) Brightness Sun altitude
Exits shadow 06:35:11 12° 282° (WNW) 1,342 -1.9 -8.6°
Maximum altitude 06:37:58 40° 213° (SSW) 607 -3.1 -8.2°
Drops below altitude 10° 06:41:03 10° 142° (SE) 1,450 0.0 -7.7°
Sets 06:43:11 0° 134° (SE) 2,306 1.3 -7.3°
